Terminal Aerodrome Forecast
Issued by NWS Portland, OR

Home | Current Version | Previous Version | Text Only | Print | Product List | Glossary On
Versions: 1 2 3 4 5 6 7 8 9 10 11 12 13 14 15 16 17 18 19 20
000
FTUS46 KPQR 280520
TAFTTD
TAF
KTTD 280520Z 2806/2906 29006KT P6SM BKN060
     FM281100 VRB03KT P6SM BKN020
     FM282000 34004KT P6SM BKN050=

USA.gov is the U.S. government's official web portal to all federal, state and local government web resources and services.